Regional Weather Roundup
Issued by NWS

Home | Current Version | Previous Version | Graphics & Text | Print | Product List | Glossary On
Versions: 1 2 3 4 5 6 7 8 9 10 11 12 13 14 15 16 17 18 19 20 21 22 23 24 25 26 27 28 29 30 31 32 33 34 35 36 37 38 39 40 41 42 43 44 45 46 47 48 49 50
000
ASUS43 KBIS 230410
RWRND

NORTH DAKOTA REGIONAL WEATHER ROUNDUP
NATIONAL WEATHER SERVICE BISMARCK ND
1100 PM CDT MON SEP 22 2014

NOTE: "FAIR" INDICATES FEW OR NO CLOUDS BELOW 12,000 FEET WITH NO
SIGNIFICANT WEATHER AND/OR OBSTRUCTIONS TO VISIBILITY.


NDZ001>003-009>011-017-230500-
NORTHWEST NORTH DAKOTA

CITY           SKY/WX    TMP DP  RH WIND       PRES   REMARKS
WILLISTON      CLEAR     67  50  54 CALM      29.88S
MINOT          CLEAR     60  48  64 SE6       29.92F
MINOT AFB      CLEAR     57  50  76 SE7       29.91F
$$

NDZ018>021-031>035-040>046-230500-
SOUTHWEST NORTH DAKOTA

CITY           SKY/WX    TMP DP  RH WIND       PRES   REMARKS
BISMARCK       CLEAR     62  50  64 E10       29.94F
DICKINSON      CLEAR     61  49  64 SE12      29.89S
GARRISON         N/A     59  50  72 SE6       29.93S
HETTINGER ARPT CLEAR     60  51  72 SE8       29.91S
$$

NDZ004>008-012>016-024-026-027-054-230500-
NORTHEAST NORTH DAKOTA

CITY           SKY/WX    TMP DP  RH WIND       PRES   REMARKS
GRAND FORKS    CLEAR     58  49  72 SE7       30.03S
GRND FRKS AFB  CLEAR     55  49  79 S7        30.03S
DEVILS LAKE    CLEAR     57  48  72 SE6       29.99S
$$

NDZ022-023-025-028>030-036>039-047>053-230500-
SOUTHEAST NORTH DAKOTA

CITY           SKY/WX    TMP DP  RH WIND       PRES   REMARKS
FARGO          CLEAR     62  48  60 SE9       30.06S
JAMESTOWN      CLEAR     59  48  67 S10       30.01F
$$



USA.gov is the U.S. government's official web portal to all federal, state and local government web resources and services.